"Period start","avg(HW err(1)/warn(2) (#))","avg(Visibility (m))","avg(Weather code (#))","avg(Precip intensity (mm/h))","min(HW err(1)/warn(2) (#))","max(HW err(1)/warn(2) (#))","std(HW err(1)/warn(2) (#))","med(HW err(1)/warn(2) (#))","min(Visibility (m))","max(Visibility (m))","std(Visibility (m))","med(Visibility (m))","min(Weather code (#))","max(Weather code (#))","std(Weather code (#))","med(Weather code (#))","min(Precip intensity (mm/h))","max(Precip intensity (mm/h))","std(Precip intensity (mm/h))","med(Precip intensity (mm/h))"
2014-06-24 00:00:00,0,45538,17,0.15,0,0,0,0,33516,50000,4991,46461,0,61,27,0,0.00,0.95,0.31,0.00
2014-06-24 00:10:00,0,44730,55,0.89,0,0,0,0,32707,50000,5463,45548,51,61,5,51,0.30,2.35,0.61,0.60
2014-06-24 00:20:00,1,38689,46,0.22,0,2,1,2,28955,47458,5811,38260,0,51,15,51,0.00,0.85,0.26,0.15
2014-06-24 00:30:00,1,44029,6,0.00,0,2,1,1,32843,50000,5374,44276,0,61,18,0,0.00,0.00,0.00,0.00
2014-06-24 00:40:00,0,45292,32,0.07,0,2,1,0,32911,50000,6423,49546,0,61,26,51,0.00,0.25,0.09,0.00
2014-06-24 00:50:00,1,48312,0,0.00,0,2,1,2,38827,50000,3591,50000,0,0,0,0,0.00,0.00,0.00,0.00
2014-06-24 01:00:00,0,48595,0,0.00,0,2,1,0,41901,50000,2605,50000,0,0,0,0,0.00,0.00,0.00,0.00
2014-06-24 01:10:00,0,49722,0,0.00,0,0,0,0,48224,50000,580,50000,0,0,0,0,0.00,0.00,0.00,0.00
2014-06-24 01:20:00,0,48959,0,0.00,0,0,0,0,41784,50000,2479,50000,0,0,0,0,0.00,0.00,0.00,0.00
2014-06-24 01:30:00,1,48547,0,0.00,0,2,1,0,41309,50000,2549,49738,0,0,0,0,0.00,0.00,0.00,0.00
2014-06-24 01:40:00,0,49818,0,0.00,0,2,1,0,48523,50000,444,50000,0,0,0,0,0.00,0.00,0.00,0.00
2014-06-24 01:50:00,0,49155,0,0.00,0,0,0,0,43727,50000,1922,50000,0,0,0,0,0.00,0.00,0.00,0.00
2014-06-24 02:00:00,0,47424,0,0.00,0,0,0,0,40137,50000,3423,49575,0,0,0,0,0.00,0.00,0.00,0.00
2014-06-24 02:10:00,0,49866,0,0.00,0,0,0,0,49268,50000,269,50000,0,0,0,0,0.00,0.00,0.00,0.00
2014-06-24 02:20:00,0,46010,0,0.00,0,0,0,0,33144,50000,5702,49634,0,0,0,0,0.00,0.00,0.00,0.00
2014-06-24 02:30:00,0,47006,0,0.00,0,0,0,0,38537,50000,4135,49242,0,0,0,0,0.00,0.00,0.00,0.00
2014-06-24 02:40:00,0,47769,0,0.00,0,0,0,0,40375,50000,3644,50000,0,0,0,0,0.00,0.00,0.00,0.00
2014-06-24 02:50:00,0,49602,0,0.00,0,0,0,0,47935,50000,721,50000,0,0,0,0,0.00,0.00,0.00,0.00
2014-06-24 03:00:00,0,49356,0,0.00,0,0,0,0,44879,50000,1515,50000,0,0,0,0,0.00,0.00,0.00,0.00
2014-06-24 03:10:00,0,48958,0,0.00,0,0,0,0,44556,50000,1845,50000,0,0,0,0,0.00,0.00,0.00,0.00
2014-06-24 03:20:00,0,49514,0,0.00,0,0,0,0,47696,50000,791,50000,0,0,0,0,0.00,0.00,0.00,0.00
2014-06-24 03:30:00,0,49810,0,0.00,0,0,0,0,48949,50000,382,50000,0,0,0,0,0.00,0.00,0.00,0.00
2014-06-24 03:40:00,0,49962,0,0.00,0,0,0,0,49620,50000,114,50000,0,0,0,0,0.00,0.00,0.00,0.00
2014-06-24 03:50:00,0,49616,0,0.00,0,0,0,0,47439,50000,769,50000,0,0,0,0,0.00,0.00,0.00,0.00
2014-06-24 04:00:00,0,48497,0,0.00,0,0,0,0,42146,50000,2625,50000,0,0,0,0,0.00,0.00,0.00,0.00
2014-06-24 04:10:00,0,49858,0,0.00,0,0,0,0,49265,50000,285,50000,0,0,0,0,0.00,0.00,0.00,0.00
2014-06-24 04:20:00,0,49239,0,0.00,0,0,0,0,45809,50000,1532,50000,0,0,0,0,0.00,0.00,0.00,0.00
2014-06-24 04:30:00,0,49996,0,0.00,0,0,0,0,49963,50000,11,50000,0,0,0,0,0.00,0.00,0.00,0.00
2014-06-24 04:40:00,0,49859,0,0.00,0,0,0,0,49218,50000,285,50000,0,0,0,0,0.00,0.00,0.00,0.00
2014-06-24 04:50:00,0,50000,0,0.00,0,0,0,0,50000,50000,0,50000,0,0,0,0,0.00,0.00,0.00,0.00
2014-06-24 05:00:00,0,49255,0,0.00,0,0,0,0,46004,50000,1236,50000,0,0,0,0,0.00,0.00,0.00,0.00
2014-06-24 05:10:00,0,49198,0,0.00,0,0,0,0,46268,50000,1328,50000,0,0,0,0,0.00,0.00,0.00,0.00
2014-06-24 05:20:00,0,49770,17,0.04,0,0,0,0,48573,50000,476,50000,0,61,27,0,0.00,0.25,0.08,0.00
2014-06-24 05:30:00,0,48926,51,0.32,0,0,0,0,42613,50000,2330,50000,51,51,0,51,0.10,0.70,0.21,0.20
2014-06-24 05:40:00,2,47660,51,0.42,0,2,1,2,43486,50000,2524,49208,51,51,0,51,0.20,0.70,0.16,0.38
2014-06-24 05:50:00,2,37664,51,0.70,2,2,0,2,23321,50000,10008,37630,51,52,0,51,0.20,1.25,0.34,0.73
2014-06-24 06:00:00,2,28101,59,2.75,2,2,0,2,20256,40311,6404,26506,52,61,4,61,0.95,5.35,1.46,2.80
2014-06-24 06:10:00,2,36141,61,2.94,2,2,0,2,20333,50000,8596,35712,61,61,0,61,1.20,4.65,1.10,3.17
2014-06-24 06:20:00,2,42125,61,1.71,2,2,0,2,26598,50000,7760,44726,61,61,0,61,0.80,2.50,0.55,1.62
2014-06-24 06:30:00,2,23444,61,3.33,2,2,0,2,15999,30340,5242,22943,61,61,0,61,2.25,5.90,1.10,2.92
2014-06-24 06:40:00,2,29573,61,2.86,2,2,0,2,20212,37636,6804,29327,61,61,0,61,1.35,4.85,1.07,2.72
2014-06-24 06:50:00,2,39052,61,1.59,0,2,1,2,30281,47404,4723,38658,61,61,0,61,0.25,2.70,0.68,1.65
2014-06-24 07:00:00,2,45075,61,1.22,2,2,0,2,37117,50000,4488,46424,61,61,0,61,0.20,2.70,0.88,0.85
2014-06-24 07:10:00,2,41892,54,0.75,2,2,0,2,30474,50000,7315,42696,51,61,4,52,0.25,1.20,0.28,0.78
2014-06-24 07:20:00,2,39828,60,1.39,0,2,1,2,32893,50000,5242,38864,52,61,3,61,0.30,3.50,0.90,1.12
2014-06-24 07:30:00,2,33933,59,1.72,0,2,1,2,22210,47500,8615,33401,52,61,4,61,0.70,3.20,0.74,1.58
2014-06-24 07:40:00,2,26908,61,3.64,2,2,0,2,22392,35348,3740,25584,61,61,0,61,1.35,5.35,1.22,4.03
2014-06-24 07:50:00,2,22558,57,2.43,2,2,0,2,16699,29958,4246,21118,52,61,4,61,1.35,3.65,0.62,2.45
2014-06-24 08:00:00,2,14965,61,7.03,0,2,1,2,10947,25409,3902,14040,61,62,0,61,3.25,12.35,2.36,6.82
2014-06-24 08:10:00,2,13252,61,10.06,2,2,0,2,10996,16306,1600,12544,61,62,0,61,5.75,19.05,3.85,8.50
2014-06-24 08:20:00,2,15849,61,6.53,0,2,1,2,13289,19525,1760,16000,61,62,0,61,4.50,12.00,2.00,6.00
2014-06-24 08:30:00,2,15496,61,7.58,0,2,1,2,12957,18401,1538,15362,61,62,0,61,3.85,11.95,2.49,8.03
2014-06-24 08:40:00,1,13841,61,8.96,0,2,1,2,11547,18628,2378,12660,61,62,0,61,4.95,13.05,2.50,8.50
2014-06-24 08:50:00,2,12530,62,9.37,0,2,1,2,10805,14031,1222,12440,61,62,0,62,6.65,13.55,2.14,9.38
2014-06-24 09:00:00,1,15321,61,5.74,0,2,1,2,12676,18247,1702,15191,61,61,0,61,3.15,8.90,1.81,6.05
2014-06-24 09:10:00,1,15969,61,4.58,0,2,1,0,12777,18752,1830,16293,61,61,0,61,2.30,7.05,1.41,4.45
2014-06-24 09:20:00,1,13248,61,5.51,0,2,1,2,4810,21238,5130,14622,61,61,0,61,3.20,9.80,2.04,5.32
2014-06-24 09:30:00,1,4709,61,8.61,0,2,1,2,3742,6091,721,4574,61,62,0,61,5.45,14.40,2.90,7.70
2014-06-24 09:40:00,2,5844,61,8.36,2,2,0,2,4164,8274,1246,5350,61,62,0,61,4.10,12.80,2.70,8.72
2014-06-24 09:50:00,2,4625,61,6.46,2,2,0,2,2076,7014,2067,4898,61,61,0,61,3.75,9.80,2.42,6.45
2014-06-24 10:00:00,2,2923,61,7.43,2,2,0,2,2184,3979,518,2974,61,62,0,61,3.90,12.65,2.83,6.47
2014-06-24 10:10:00,2,2126,61,5.42,2,2,0,2,1743,2710,314,2037,61,61,0,61,3.30,7.35,1.30,5.53
2014-06-24 10:20:00,2,2072,61,5.64,2,2,0,2,1586,2544,269,2130,61,62,0,61,3.40,11.55,2.32,4.92
2014-06-24 10:30:00,2,2007,61,3.60,2,2,0,2,1566,2726,372,1896,61,61,0,61,2.30,5.35,0.98,3.55
2014-06-24 10:40:00,2,2112,61,3.46,2,2,0,2,1790,2561,242,2050,61,61,0,61,2.25,4.45,0.70,3.62
2014-06-24 10:50:00,2,4055,61,3.69,2,2,0,2,2817,5376,921,4145,61,61,0,61,2.55,6.65,1.23,3.20
2014-06-24 11:00:00,2,6338,59,4.14,2,2,0,2,5234,7602,854,6333,52,61,4,61,3.15,6.15,0.79,3.97
2014-06-24 11:10:00,2,5626,61,6.79,2,2,0,2,4386,6637,687,5706,61,62,0,61,4.30,11.30,2.30,5.95
2014-06-24 11:20:00,2,5309,62,10.32,2,2,0,2,4253,6343,674,5216,61,62,0,62,7.15,15.70,2.84,10.05
2014-06-24 11:30:00,2,4110,61,4.87,2,2,0,2,2189,6210,1122,4090,61,61,0,61,3.05,7.15,1.03,4.90
2014-06-24 11:40:00,2,2233,61,4.75,2,2,0,2,1825,2430,175,2262,61,61,0,61,3.15,6.30,0.95,4.55
2014-06-24 11:50:00,2,1895,61,8.37,2,2,0,2,1542,2247,187,1865,61,62,0,61,5.65,12.10,1.95,8.62
2014-06-24 12:00:00,2,1852,61,7.65,2,2,0,2,1651,2101,121,1836,61,62,0,61,3.95,10.45,1.82,8.35
2014-06-24 12:10:00,2,2352,61,6.38,2,2,0,2,1681,2962,396,2319,61,61,0,61,3.30,9.75,1.71,6.62
2014-06-24 12:20:00,2,1995,61,6.54,2,2,0,2,1534,2952,396,1867,61,61,0,61,4.90,9.30,1.35,6.38
2014-06-24 12:30:00,2,4290,61,5.88,2,2,0,2,2833,7173,1436,3954,61,61,0,61,3.85,9.20,1.66,5.55
2014-06-24 12:40:00,2,4502,61,6.34,2,2,0,2,1459,7782,2134,4134,61,61,0,61,4.35,8.90,1.42,5.78
2014-06-24 12:50:00,2,5210,61,6.24,2,2,0,2,2378,7405,1293,5400,61,62,0,61,2.45,10.25,2.59,5.20
2014-06-24 13:00:00,2,7445,61,7.96,2,2,0,2,5773,8684,949,7590,61,62,0,61,4.90,17.85,3.58,7.43
2014-06-24 13:10:00,2,9360,61,6.08,2,2,0,2,4175,12891,2468,9737,61,61,0,61,4.20,9.00,1.45,5.75
2014-06-24 13:20:00,2,7402,61,5.37,2,2,0,2,5589,9268,1145,7455,61,61,0,61,3.70,7.10,1.12,5.60
2014-06-24 13:30:00,2,3821,61,5.81,2,2,0,2,3438,4624,336,3745,61,61,0,61,3.60,9.00,1.56,5.33
2014-06-24 13:40:00,2,4375,61,3.34,2,2,0,2,3477,5195,559,4288,61,61,0,61,1.70,4.80,1.09,3.52
2014-06-24 13:50:00,2,5519,61,4.50,2,2,0,2,5065,6112,313,5544,61,61,0,61,2.85,6.45,1.16,4.32
2014-06-24 14:00:00,2,5243,61,4.17,2,2,0,2,4227,6177,539,5100,61,61,0,61,2.65,7.00,1.50,3.55
2014-06-24 14:10:00,2,3605,58,5.63,2,2,0,2,2263,5568,880,3367,52,61,4,61,1.75,8.85,2.66,6.97
2014-06-24 14:20:00,2,1835,61,6.35,2,2,0,2,1293,2539,388,1836,61,62,0,61,3.55,10.70,2.20,5.62
2014-06-24 14:30:00,2,1482,61,4.12,2,2,0,2,974,1924,278,1441,61,61,0,61,2.55,5.10,0.75,4.43
2014-06-24 14:40:00,2,899,61,5.19,2,2,0,2,715,981,80,938,61,61,0,61,3.40,8.10,1.41,4.58
2014-06-24 14:50:00,2,953,61,6.19,2,2,0,2,773,1512,199,916,61,62,0,61,3.95,10.50,2.05,5.80
2014-06-24 15:00:00,2,1572,61,8.32,2,2,0,2,1125,2598,508,1280,61,62,0,61,7.05,10.75,1.13,7.98
2014-06-24 15:10:00,2,2486,61,7.17,2,2,0,2,2007,3129,322,2482,61,61,0,61,5.55,8.25,0.91,7.22
2014-06-24 15:20:00,2,2615,61,3.77,2,2,0,2,2077,3113,368,2494,61,61,0,61,2.50,5.15,0.87,3.62
2014-06-24 15:30:00,2,2536,56,2.68,2,2,0,2,2209,2944,236,2545,52,61,4,52,1.25,3.90,0.73,2.77
2014-06-24 15:40:00,2,1726,56,1.76,2,2,0,2,1098,2439,439,1724,52,61,4,56,0.85,2.65,0.68,1.53
2014-06-24 15:50:00,2,4516,52,1.06,2,2,0,2,1361,7474,1975,4870,52,52,0,52,0.50,2.25,0.48,0.92
2014-06-24 16:00:00,2,9071,52,2.15,2,2,0,2,6509,11222,1201,9056,52,52,0,52,0.90,3.05,0.70,2.17
2014-06-24 16:10:00,2,11699,60,2.80,2,2,0,2,5775,19498,4130,12178,52,61,3,61,1.65,4.60,0.96,2.80
2014-06-24 16:20:00,2,14883,61,2.66,2,2,0,2,8281,18463,3092,14623,61,61,0,61,1.60,4.05,0.71,2.58
2014-06-24 16:30:00,2,6714,61,3.52,2,2,0,2,3178,10918,2592,6777,61,61,0,61,1.85,4.55,0.76,3.70
2014-06-24 16:40:00,2,6461,61,3.08,2,2,0,2,4638,10182,1788,5493,61,61,0,61,1.80,4.55,0.72,3.00
2014-06-24 16:50:00,2,9796,61,2.76,2,2,0,2,8567,10842,740,9950,61,61,0,61,1.70,4.85,0.93,2.65
2014-06-24 17:00:00,2,11089,55,1.44,2,2,0,2,5595,14323,2670,11904,52,61,4,52,0.95,2.40,0.47,1.33
2014-06-24 17:10:00,2,9820,57,1.91,2,2,0,2,5998,13035,2387,10412,52,61,4,61,1.00,4.20,1.10,1.43
2014-06-24 17:20:00,2,13777,61,2.33,2,2,0,2,10238,16652,2250,13785,61,61,0,61,1.35,3.70,0.70,2.30
2014-06-24 17:30:00,2,10855,61,2.40,2,2,0,2,7012,13644,1964,10967,61,61,0,61,0.90,5.35,1.30,2.10
2014-06-24 17:40:00,2,10890,61,4.05,2,2,0,2,6409,15023,2385,10936,61,61,0,61,2.30,6.20,1.19,3.80
2014-06-24 17:50:00,2,13814,61,3.04,2,2,0,2,12187,16409,1255,13876,61,61,0,61,2.25,3.95,0.55,3.08
2014-06-24 18:00:00,2,15869,61,2.21,2,2,0,2,14309,17471,851,15946,61,61,0,61,0.90,3.40,0.77,2.12
2014-06-24 18:10:00,2,16270,61,3.47,2,2,0,2,12732,26134,4055,14378,61,61,0,61,1.70,6.75,1.44,2.90
2014-06-24 18:20:00,2,22462,61,1.65,2,2,0,2,19826,27660,2121,21778,61,61,0,61,0.60,3.00,0.85,1.33
2014-06-24 18:30:00,2,26222,59,2.94,2,2,0,2,20783,31877,4427,26369,52,61,4,61,1.50,4.40,0.82,3.12
2014-06-24 18:40:00,2,24380,61,2.33,2,2,0,2,21521,27980,2169,24692,61,61,0,61,1.10,3.65,0.80,2.30
2014-06-24 18:50:00,2,35159,58,1.37,2,2,0,2,25313,41568,4590,36658,52,61,4,61,0.65,2.40,0.61,1.00
2014-06-24 19:00:00,2,38249,56,0.98,2,2,0,2,32163,42857,3472,37737,52,61,4,52,0.40,1.80,0.45,1.00
2014-06-24 19:10:00,2,35818,52,0.70,2,2,0,2,29890,43764,4786,35536,52,52,0,52,0.30,1.25,0.29,0.65
2014-06-24 19:20:00,2,31055,52,0.59,2,2,0,2,21577,40514,6180,31810,51,52,0,52,0.05,1.25,0.46,0.53
2014-06-24 19:30:00,2,34961,20,0.02,2,2,0,2,26763,47597,5721,32994,0,51,25,0,0.00,0.05,0.02,0.00
2014-06-24 19:40:00,2,49676,0,0.00,2,2,0,2,48316,50000,567,50000,0,0,0,0,0.00,0.00,0.00,0.00
2014-06-24 19:50:00,2,49711,0,0.00,2,2,0,2,47107,50000,868,50000,0,0,0,0,0.00,0.00,0.00,0.00
2014-06-24 20:00:00,2,50000,0,0.00,2,2,0,2,50000,50000,0,50000,0,0,0,0,0.00,0.00,0.00,0.00
2014-06-24 20:10:00,2,49899,0,0.00,2,2,0,2,48988,50000,304,50000,0,0,0,0,0.00,0.00,0.00,0.00
2014-06-24 20:20:00,2,50000,0,0.00,2,2,0,2,50000,50000,0,50000,0,0,0,0,0.00,0.00,0.00,0.00
2014-06-24 20:30:00,2,50000,0,0.00,2,2,0,2,50000,50000,0,50000,0,0,0,0,0.00,0.00,0.00,0.00
2014-06-24 20:40:00,2,49996,0,0.00,2,2,0,2,49957,50000,13,50000,0,0,0,0,0.00,0.00,0.00,0.00
2014-06-24 20:50:00,2,49694,0,0.00,2,2,0,2,47826,50000,647,50000,0,0,0,0,0.00,0.00,0.00,0.00
2014-06-24 21:00:00,2,50000,0,0.00,2,2,0,2,50000,50000,0,50000,0,0,0,0,0.00,0.00,0.00,0.00
2014-06-24 21:10:00,2,49318,0,0.00,2,2,0,2,46746,50000,1074,50000,0,0,0,0,0.00,0.00,0.00,0.00
2014-06-24 21:20:00,2,50000,0,0.00,2,2,0,2,50000,50000,0,50000,0,0,0,0,0.00,0.00,0.00,0.00
2014-06-24 21:30:00,2,49648,0,0.00,2,2,0,2,46475,50000,1058,50000,0,0,0,0,0.00,0.00,0.00,0.00
2014-06-24 21:40:00,2,49961,0,0.00,2,2,0,2,49631,50000,110,50000,0,0,0,0,0.00,0.00,0.00,0.00
2014-06-24 21:50:00,2,49008,0,0.00,2,2,0,2,43260,50000,2137,50000,0,0,0,0,0.00,0.00,0.00,0.00
2014-06-24 22:00:00,2,49481,0,0.00,2,2,0,2,47623,50000,863,50000,0,0,0,0,0.00,0.00,0.00,0.00
2014-06-24 22:10:00,2,50000,0,0.00,2,2,0,2,50000,50000,0,50000,0,0,0,0,0.00,0.00,0.00,0.00
2014-06-24 22:20:00,2,50000,0,0.00,2,2,0,2,50000,50000,0,50000,0,0,0,0,0.00,0.00,0.00,0.00
2014-06-24 22:30:00,2,49728,0,0.00,2,2,0,2,48149,50000,586,50000,0,0,0,0,0.00,0.00,0.00,0.00
2014-06-24 22:40:00,2,50000,0,0.00,2,2,0,2,50000,50000,0,50000,0,0,0,0,0.00,0.00,0.00,0.00
2014-06-24 22:50:00,2,49216,0,0.00,2,2,0,2,42826,50000,2136,50000,0,0,0,0,0.00,0.00,0.00,0.00
2014-06-24 23:00:00,2,49332,0,0.00,2,2,0,2,43315,50000,2006,50000,0,0,0,0,0.00,0.00,0.00,0.00
2014-06-24 23:10:00,2,48404,0,0.00,2,2,0,2,40661,50000,2883,50000,0,0,0,0,0.00,0.00,0.00,0.00
2014-06-24 23:20:00,2,39938,0,0.00,2,2,0,2,34237,49028,4377,38987,0,0,0,0,0.00,0.00,0.00,0.00
2014-06-24 23:30:00,2,47416,0,0.00,2,2,0,2,36298,50000,4505,50000,0,0,0,0,0.00,0.00,0.00,0.00
2014-06-24 23:40:00,2,47833,0,0.00,2,2,0,2,42914,50000,2585,49282,0,0,0,0,0.00,0.00,0.00,0.00
2014-06-24 23:50:00,2,49527,0,0.00,2,2,0,2,45271,50000,1419,50000,0,0,0,0,0.00,0.00,0.00,0.00
